Zurück zum Katalog

STARLINK-34536

AktivKommunikationVLEO
NORAD 64748·PAYLOAD·🇺🇸 United States

Gestartet Jul 2, 2025 von Cape Canaveral Space Force Station

Loading…

Nächste Überflüge (nächste 24 Stunden)

TLE

AktuellSource: CelesTrak SupGP

Epoche: Sep 15, 2026, 02:53 UTC

1 64748C 25144AA  26258.12062500  .00033490  00000+0  98957-3 0  2581
2 64748  53.1612  20.6566 0001006  81.5543 201.9752 15.34370959    10

Verfolge STARLINK-34536 in Echtzeit mit AllMySat

Download on the App Store